Showing default

KUIPER-00101, 65947

Orbit data source: Space-Track

KUIPER-00101, 65947 is a payload satellite owned by Kuiper Systems (US) in LEO that was launched on Tue, 14 Oct 2025 UTC via an FALCON 9 launch vehicle from the Air Force Eastern Test Range (AFETR). Payload-class satellites include a variety of spacecraft equipped with specific instruments for various scientific and technological missions. These include communications satellites like Starlink; space stations such as the ISS; scientific satellites like the Hubble; Earth observation satellites from companies like Planet Labs, Umbra, and HawkEye 360; GPS; miniature CubeSats for education and research; and military/defense satellites.

Loading next visibility...
Identifier
65947, 2025-228A
Orbit
LEO
Country
Flag of USUS
Related business
Manufacturer
Kuiper Systems
Mission
Operational Commercial Communications
Bus & Motor
KUIPER, Unknown motor
Mass
~490 kg wet, ~490 kg dry
Launch date (UTC)
2025-10-14 (8 months ago)
Launch vehicle
FALCON 9
Launch site
Air Force Eastern Test Range (AFETR)
Object type
Payload
Rocket body
Debris
Shape & HBR
Box + 2 Pan, 3.4 m
Radar Cross Section
2.326 m², Large (>1 m²)

Expand to show TLE details & history
Last TLE update: 1 day ago

TLE from 1 day ago
0 KUIPER-00101
1 65947U 25228A   26170.53034199  .00002593  00000-0  36903-3 0  9993
2 65947  51.8981 270.2212 0000594 105.1511 254.9517 14.79932595 38315
Epoch: 2026-06-19T12:43Z
TLE epoch observation values (Epoch: 2026-06-19T12:43:41.547Z)
Latitude
-0.00005°
Longitude
171.54006°
Altitude
630.392 km
Speed
7.544 km/s
True Right ascension
18h 00m 53s
True Declination
0° 00' 00"
Sunlit
Object was in full shadow at epoch
Visualization orbit readout
Latitude
Unknown
Longitude
Unknown
Altitude
Unknown
Speed
Unknown
Apparent Right ascension
Unknown
Apparent Declination
Unknown
Sunlit
N/A
Visualization observer readout
Local Sidereal Time
07:14:51
Azimuth
Unknown
Elevation
Unknown
Doppler factor
Unknown
Orbital elements
Apogee altitude
630.405 km
Perigee altitude
629.572 km
Semi-major axis
7,008.125 km
Eccentricity
0.00006
Inclination
51.8981°
RAAN
270.2212°
Arg. of periapsis
105.1511°
True anomaly
254.94513°
Mean anomaly
254.9517°
Eccentric anomaly
254.94841°
Mean motion
3.69948 °/min
Orbital period
97.31 mins
BSTAR
0.00036903
Loading maneuver chart data...
Computing Atmospheric mass density...
Loading historical data...
Loading historical data...
Loading historical data...
Loading historical data...
Loading historical data...
Loading historical data...
Loading historical data...

Documentation

Showing up to 5 results
|